Location: Stull Observatory
(42.2506°N, 77.7903°W)
Time: 14:06:46
(UTC-04:00)

Daily predictions for brighter satellites

Satellite Brightness Start Highest point End
(mag) Time Altitude Azimuth Time Altitude Azimuth Time Altitude Azimuth
Cosmos 990 Rocket 4.1 19:20:25 10° NNW 19:25:36 82° WSW 19:30:44 10° SSE
Cosmos 2058 Rocket 3.1 19:23:44 10° S 19:28:01 59° E 19:32:21 10° NNE
Resurs 01 Rocket 3.4 19:25:53 10° E 19:28:05 14° ENE 19:30:18 10° NNE
Meteor 2-13 Rocket 4.5 19:22:58 10° S 19:28:56 64° E 19:34:56 10° NNE
Cosmos 1340 Rocket 3.2 19:25:07 10° NNW 19:29:11 71° W 19:33:15 10° S
Cosmos 1814 Rocket 4.2 19:24:13 10° SSW 19:29:22 77° WNW 19:34:32 10° NNE
SL-08 ROCKET BODY 4.4 19:23:40 10° S 19:29:26 62° E 19:35:20 10° NNE
Cosmos 2184 Rocket 4.3 19:29:49 10° SSE 19:35:48 47° E 19:41:52 10° NNE
SPOT 3 Rocket 4.0 19:33:07 10° S 19:38:15 70° WSW 19:43:26 10° NNW
Cosmos 1125 Rocket 4.0 19:34:45 10° N 19:39:46 41° ENE 19:44:46 10° SE
Meteor 1-24 Rocket 3.9 19:35:25 10° N 19:41:15 54° ENE 19:46:53 10° SSE
NOAA 12 4.1 19:36:54 10° SSE 19:42:09 89° ENE 19:47:27 10° NNW
Cosmos 1656 Rocket 3.8 19:40:11 10° NNW 19:45:51 80° WSW 19:51:23 10° SSE
Milstar 3 Cent rocket 4.0 19:43:43 10° SSW 19:46:46 14° S 19:49:25 10° SE
Geosat 4.1 19:42:09 10° SE 19:47:05 62° ENE 19:52:04 10° NNW
ATLAS 2AS CENTAUR R/B 4.1 19:40:29 10° NNW 19:47:17 28° NNE 19:53:09 12° E
Envisat 4.3 19:44:02 10° ESE 19:47:37 20° ENE 19:51:15 10° NNE
FENGYUN 3A 3.7 19:46:32 10° SSE 19:51:53 88° WSW 19:57:18 10° NNW
Cosmos 2327 Rocket 4.5 19:47:22 10° S 19:53:19 59° E 19:59:17 10° NNE
NOSS 3-1 (A) 4.2 19:49:43 10° NW 19:57:24 87° SW 20:05:53 10° SSE
Cosmos 841 Rocket 4.0 19:55:54 10° SSW 20:00:59 62° WNW 20:06:06 10° NNE
H-2A R/B 2.6 19:57:45 10° SSE 20:01:27 65° ENE 20:05:12 10° N
Cosmos 1544 3.0 19:58:35 10° S 20:02:07 57° E 20:05:40 10° NNE
SJ-6B 2.8 19:59:11 10° SSE 20:03:07 60° ENE 20:06:58 10° N
BREEZE-M (TANK) 4.4 19:48:57 10° WNW 20:05:33 66° SW 20:09:26 12° SE
Cosmos 1953 3.3 20:05:08 10° SSE 20:08:31 26° E 20:11:56 10° NNE
CSL-04 DEB 4.5 20:05:05 10° SSE 20:09:28 83° ENE 20:13:48 10° NNW
Cosmos 540 Rocket 3.3 20:04:57 10° SSW 20:10:03 80° ESE 20:15:11 10° NNE
Cosmos 292 Rocket 4.2 20:10:47 10° S 20:15:17 40° ESE 20:19:49 10° NE
SL-27 R/B 2.7 20:12:08 10° S 20:15:37 48° ESE 20:19:09 10° NNE
BREEZE-M DEB (TANK) 4.2 20:12:25 10° WNW 20:16:16 47° NNE 20:25:06 17° E
BREEZE M DEB (TANK) 3.8 20:15:36 10° W 20:21:46 34° NNW 20:23:46 16° NE
In-Cosmos 22 4.3 20:16:18 10° NNW 20:22:03 84° W 20:27:49 10° S
SJ 16-02 1.3 20:17:42 10° NNW 20:22:04 62° ENE 20:24:56 20° SE
COSMOS 2406 3.5 20:16:44 10° SSW 20:22:25 71° WNW 20:28:10 10° NNE
HJ-1C 3.4 20:20:22 10° S 20:23:41 79° WSW 20:27:05 10° NNW
Cosmos 1674 3.1 20:21:44 10° N 20:25:15 38° ENE 20:25:44 36° E
Cosmos 1766 4.1 20:24:57 10° SSW 20:28:47 53° W 20:32:37 10° N
Cosmos 2369 4.2 20:26:49 10° NNW 20:32:10 41° ENE 20:34:09 31° ESE
Resurs 1-3 3.6 20:33:13 29° SE 20:35:19 59° ENE 20:39:39 10° N
ALOS 4.4 20:35:53 10° SSW 20:39:48 27° W 20:43:45 10° NW
ISS -3.8 20:36:49 10° WSW 20:40:04 77° NW 20:40:34 60° NNE
Cosmos 2154 Rocket 3.9 20:35:05 10° S 20:41:19 83° E 20:47:36 10° N
MOS 1-B Rocket 3.8 20:37:07 17° SSE 20:41:50 66° ENE 20:47:25 10° N
BREEZE-M DEB (TANK) 3.3 20:35:09 10° WSW 20:46:40 83° SSE 20:48:26 38° ENE
Meteor 1-21 Rocket 4.1 20:42:45 10° N 20:48:30 72° E 20:51:42 26° SSE
Elektron 1 4.2 20:49:29 10° NW 20:52:32 53° SW 20:52:33 53° SW
Spot 2 Rocket 3.3 20:50:59 29° SSE 20:53:35 83° ENE 20:58:39 10° NNW
Cosmos 1758 3.5 20:50:05 10° SSW 20:54:05 72° W 20:58:05 10° N
Cosmos 1812 Rocket 4.5 20:51:38 10° SSW 20:55:58 50° WNW 21:00:21 10° N
Cosmos 2341 Rocket 3.8 20:50:21 10° S 20:56:32 78° E 21:02:47 10° N
Meteor 2-21 4.4 20:54:21 21° SSE 20:58:22 56° E 21:04:20 10° NNE
Cosmos 2082 Rocket 4.4 21:03:55 11° NE 21:03:55 11° NE 21:04:12 10° NE
SJ-11-01 4.4 20:58:56 54° ENE 20:58:56 54° ENE 21:03:32 10° N
ATLAS 5 CENTAUR R/B 3.9 20:57:18 10° S 20:57:40 12° S 20:57:40 12° S
GP-B 3.6 20:59:36 10° N 21:03:58 58° W 21:08:19 10° SSW
Resurs 01 Rocket 2.0 21:01:55 29° S 21:04:02 63° WSW 21:08:26 10° NNW
CZ-2D R/B 4.4 21:04:04 22° SSW 21:06:04 40° W 21:09:43 10° NNW
Cosmos 2278 3.6 21:00:24 10° NNW 21:06:04 72° ENE 21:07:09 57° SE
KORONAS-FOTON 4.4 21:06:02 10° N 21:08:59 52° NNW 21:08:59 52° NNW
Nadezhda 3 Rocket 4.4 21:04:09 10° NNW 21:10:20 61° W 21:16:26 10° S
ERS-1 Rocket 4.4 21:12:21 24° NNE 21:12:21 24° NNE 21:14:59 10° N
Cosmos 1939 Rocket 3.6 21:12:33 45° N 21:12:33 45° N 21:15:23 10° N
Meteor 2-15 Rocket 4.4 21:05:49 10° N 21:11:48 58° ENE 21:12:14 56° E
Cosmos 2366 rocket 4.2 21:14:27 48° ENE 21:14:27 48° ENE 21:19:51 10° NNE
Cosmos 2322 Rocket 4.3 21:13:12 10° NNE 21:14:57 13° NE 21:14:57 13° NE
Cosmos 1656 3.5 21:10:04 10° NNW 21:15:46 71° ENE 21:16:07 69° E
Cosmos 1470 4.3 21:21:42 30° N 21:21:42 30° N 21:23:49 10° N
Cosmos 2218 Rocket 3.9 21:20:07 63° E 21:20:13 63° E 21:26:20 10° NNE
Cosmos 1697 Rocket 2.9 21:17:46 10° NNW 21:22:57 56° NE 21:22:57 56° NE
Cosmos 2285 Rocket 4.0 21:17:22 10° SSW 21:23:48 88° WNW 21:30:18 10° NNE
Cosmos 1809 Rocket 4.4 21:18:32 10° S 21:24:41 87° W 21:30:49 10° N
Cosmos 1818 4.5 21:20:12 10° NNW 21:24:30 36° NNE 21:24:30 36° NNE
Cosmos 1980 Rocket 3.2 21:20:29 10° N 21:24:38 34° NNE 21:24:38 34° NNE
Envisat 3.6 21:24:15 33° SSW 21:26:14 53° W 21:31:12 10° NNW
Okean 3 Rocket 4.3 21:24:37 10° NNW 21:28:55 49° W 21:29:16 48° WSW
Meteor 2-15 4.5 21:32:35 10° NNW 21:38:38 74° W 21:39:39 60° SSW
ATLAS 2AS CENTAUR R/B 2.8 21:31:22 10° NW 21:39:26 88° NE 21:40:36 68° SE
SL-8 Rocket 4.0 21:38:36 44° SSW 21:40:41 76° W 21:46:53 10° N
Meteor 2-14 Rocket 4.4 21:43:34 81° SW 21:43:49 84° W 21:50:00 10° N
ARGOS 4.4 21:46:44 31° NNE 21:46:44 31° NNE 21:49:44 10° N
Cosmos 1727 Rocket 4.1 21:39:15 10° N 21:44:38 62° NNE 21:44:38 62° NNE
H-2A R/B 4.0 21:57:09 19° N 21:57:09 19° N 21:58:43 10° N
SL-16 R/B 4.1 21:50:44 10° N 21:53:07 19° NNE 21:53:07 19° NNE
SJ 16-02 4.2 21:58:31 10° WNW 22:00:04 12° W 22:01:36 10° WSW
Cosmos 2082 Rocket 4.3 22:45:39 22° NNW 22:45:39 22° NNW 22:48:07 10° N
Cosmos 2322 Rocket 4.4 22:55:11 10° NNW 22:56:45 19° NNW 22:56:45 19° NNW
Cosmos 1980 Rocket 4.5 23:04:35 10° NW 23:06:24 19° NW 23:06:24 19° NW
